Flag for China Weather past 2 weeks in Hohhot, Inner Mongolia, China

Now
73 °F

Scattered clouds.


Feels Like: 76 °F
Forecast: 53 / 89 °F
Wind: 10 mph from Southwest

Location: Hohhot Airport

Current Time: Jul 23, 2014 at 6:22:22 PM

Latest Report: Jul 23, 2014 at 5:00 PM


Visibility: N/A

Pressure: 29.89 "Hg

Humidity: 61%

Dew point: 59 °F

Location of HohhotLocation

Historic Weather in Hohhot — Graph

°F

Hohhot temperature yesterday

Maximum temperature yesterday: 68 °F (at 2:00 PM)
Minimum temperature yesterday: 61 °F (at 11:00 PM)
Average temperature yesterday: 64 °F

Past Weeks' High & Low Weather Summary

 TemperatureHumidityPressure
High93 °F (Jul 18, 4:00 PM)100% (Jul 22, 6:00 AM)30.01 "Hg (Jul 22, 6:00 AM)
Low54 °F (Jul 11, 5:00 AM)26% (Jul 12, 5:00 PM)29.68 "Hg (Jul 16, 5:00 PM)
Average71 °F65%29.84 "Hg
* Reported Jul 8 5:00 PM — Jul 23 5:00 PM, Hohhot, Weather by CustomWeather, © 2014

Note: Actual official high and low records may vary slightly from our data, if they occured in-between our weather recording intervals... More about our weather records

Advertising

Hohhot weather history for previous 24 hours

 ConditionsComfort  
Time TempWeatherWind HumidityBarometerVisibility
5:00 PM
Jul 23
73 °FScattered clouds.10 mph61%29.89 "HgN/A
4:00 PM73 °FScattered clouds.10 mph69%29.89 "Hg5 mi
2:00 PM72 °FFog.6 mph69%29.92 "Hg3 mi
1:00 PM70 °FFog.6 mph73%29.95 "Hg2 mi
12:00 PM70 °FFog.6 mph78%29.95 "Hg2 mi
11:00 AM66 °FFog.6 mph83%29.98 "Hg2 mi
10:00 AM64 °FFog.3 mph88%29.98 "Hg2 mi
9:00 AM63 °FScattered clouds.3 mph94%29.98 "Hg4 mi
8:00 AM63 °FScattered clouds.1 mph88%29.98 "Hg4 mi
7:00 AM61 °FFog.1 mph100%29.98 "Hg3 mi
12:00 AM61 °FFog.1 mph100%29.98 "Hg3 mi
11:00 PM
Jul 22
61 °FFog.1 mph100%29.98 "Hg3 mi
10:00 PM63 °FPassing clouds.1 mph94%30.01 "Hg4 mi
9:00 PM63 °FPassing clouds.1 mph94%30.01 "Hg4 mi
8:00 PM64 °FPassing clouds.1 mph88%29.98 "Hg4 mi
7:00 PM64 °FPassing clouds.3 mph83%29.98 "HgN/A
6:00 PM64 °FScattered clouds.6 mph88%29.98 "Hg4 mi
Weather by CustomWeather, © 2014

See weather overviewHow to use our weather pages